Regional Weather Roundup
Issued by NWS Grand Forks, ND

Home | Current Version | Previous Version | Graphics & Text | Print | Product List | Glossary On
Versions: 1 2 3 4 5 6 7 8 9 10 11 12 13 14 15 16 17 18 19 20 21 22 23 24 25 26 27 28 29 30 31 32 33 34 35 36 37 38 39 40 41 42 43 44 45 46 47 48 49 50
000
ASUS43 KFGF 262331
RWRFGF
PRAIRIE TO PINES  WEATHER ROUNDUP
NATIONAL WEATHER SERVICE EASTERN NORTH DAKOTA/GRAND FORKS ND
600 PM CDT WED JUL 26 2017

 **SATELLITE DATA USED TO AUGMENT SKY COVER AT AUTOMATED STATIONS**
 *****  WEATHER ACROSS EASTERN NORTH DAKOTA  *****

CITY           SKY/WX    TMP DP  RH WIND       PRES   REMARKS
GRAND FORKS    FAIR      82  60  47 NW10      30.05S
GRAND FRKS AFB FAIR      81  58  46 N13       30.07S
DEVILS LAKE    FAIR      78  57  48 NE9       30.11S
FARGO          FAIR      81  60  48 N14       30.04S
WAHPETON ARPT  FAIR      79  59  50 N8        30.04F
$$

 ***** WEATHER ACROSS CENTRAL AND WESTERN NORTH DAKOTA  *****

CITY           SKY/WX    TMP DP  RH WIND       PRES   REMARKS
BISMARCK       FAIR      86  48  26 N13       30.09S
MINOT          FAIR      84  51  31 N7        30.10F
JAMESTOWN      FAIR      81  54  39 N13       30.09S
MINOT AFB      FAIR      82  49  31 N6        30.09F
GARRISON         N/A     84  50  30 N8        30.11S
WILLISTON      FAIR      90  47  22 S6        30.07F
DICKINSON      FAIR      88  51  28 E9        30.08F
HETTINGER      FAIR      89  49  25 SE10      30.12S
$$

 *****  OTHER AIRPORT OBSERVATIONS IN OUR AREA  *****

CITY           SKY/WX    TMP DP  RH WIND       PRES   REMARKS
WALHALLA       NOT AVBL
GRAFTON AIRPOR FAIR      79  59  50 N9G15     30.07S
VALLEY CITY AR FAIR      81  59  47 NE12      30.10S
CANDO          NOT AVBL
CAVALIER APRT  FAIR      79  59  50 N9        30.05F
GWINNER        CLEAR     81  61  50 N10       30.07R
ROLLA            N/A     77  57  50 N7        30.13S
 ***** THE ABOVE OBSERVATIONS ARE NON NWS ARE NOT QUALITY
       CONTROLLED AND MAY MIS-REPORT RAIN FOR SNOW...
$$

  *****  WEATHER ACROSS NORTHERN MINNESOTA  *****

CITY           SKY/WX    TMP DP  RH WIND       PRES   REMARKS
FLAG ISLAND    FAIR      79  55  44 N8        30.00S
WARROAD        FAIR      79  63  57 NW8       30.03R
ROSEAU         FAIR      79  63  57 N8        30.03S
HALLOCK        FAIR      81  59  47 N10       30.04S
THF RVR FALLS  PTSUNNY   79  58  48 NW13      30.06
BAUDETTE       FAIR      80  58  46 NW8       30.01S
WASKISH        FAIR      81  61  50 NW7       30.02S
CROOKSTON      FAIR      79  61  53 N8        30.06S
STEPHEN NDAWN    N/A     81  59  47 NW12        N/A
GREENBUSH NDAW   N/A     79  57  47 N9          N/A
$$
  *****  WEATHER ACROSS CENTRAL AND WEST MINNESOTA  *****

CITY           SKY/WX    TMP DP  RH WIND       PRES   REMARKS
FOSSTON        FAIR      75  61  60 N5        30.06S
BEMIDJI        FAIR      78  59  51 NW10      30.04S
PARK RAPIDS    FAIR      81  57  43 N13       30.04S
ELBOW LAKE     FAIR      78  63  58 N8        30.05F
WADENA         FAIR      81  61  50 NW8       30.04S
DETROIT LAKES  FAIR      77  59  53 NW9       30.07S
MOORHEAD       FAIR      81  59  47 N8        30.05S
FERGUS FALLS   FAIR      79  63  57 N7        30.03F
MORRIS MN      FAIR      81  59  47 N10       30.04S
STAPLES        FAIR      77  57  50 NW5       30.03S
$$
  *****  WEATHER ELSEWHERE ACROSS MINNESOTA  *****

CITY           SKY/WX    TMP DP  RH WIND       PRES   REMARKS
DULUTH         FAIR      80  59  48 NW10      29.98F
INTRNTL FALLS  CLOUDY    77  56  48 NW10      29.99S
ELY            FAIR      77  55  47 NW7       29.99R
CLOQUET        FAIR      81  57  44 W9        29.99S
WHEATON        FAIR      79  57  47 NW7       30.06S
BRAINERD       FAIR      80  58  46 VRB3      30.01F
HIBBING        PTSUNNY   76  58  53 NW9       29.99F
ALEXANDRIA     FAIR      79  61  53 NW9       30.06S
SAINT CLOUD    FAIR      83  61  47 NW13      30.00F
MINNEAPOLIS    FAIR      84  62  47 N10       29.97F
$$

  *****  WEATHER ACROSS SOUTH DAKOTA  *****

CITY           SKY/WX    TMP DP  RH WIND       PRES   REMARKS
SIOUX FALLS    FAIR      82  64  54 N13       30.04S
BROOKINGS      FAIR      79  59  50 N9        30.07F
WATERTOWN      FAIR      81  60  48 N10       30.06F
HURON          FAIR      83  61  47 N6        30.06S
SISSETON         N/A     83  62  49 N8        30.04S
ABERDEEN       FAIR      84  57  39 NE13      30.07S
MITCHELL       FAIR      83  60  45 NE12      30.06S
PIERRE         FAIR      87  52  29 NE13      30.07S
MOBRIDGE       FAIR      88  59  37 NE7       30.07S
RAPID CITY     PTSUNNY   87  52  29 E8        30.14F
$$

  *****  SOME WEATHER IN NEARBY STATES *****

CITY           SKY/WX    TMP DP  RH WIND       PRES   REMARKS
GLASGOW MT     FAIR      91  42  18 SE9       30.02F
GREAT FALLS MT FAIR      90  34  13 N8        30.03S
CHEYENNE WY    CLOUDY    71  54  54 NE8       30.30F
SCOTTSBLUFF NE PTSUNNY   84  58  40 NE14      30.17F
OMAHA NE       CLOUDY    76  72  87 N3        29.99R
DES MOINES IA  CLOUDY    79  71  76 S5        29.96S
DAVENPORT IA   TSTM      71  70  96 SW9G23    29.96R VSB 3/4
CHICAGO IL     CLOUDY    82  70  66 SW7       29.97F
EAU CLAIRE WI  CLOUDY    78  70  76 NW3       29.96S
LA CROSSE WI   PTSUNNY   84  72  67 W5        29.94S
$$

  *****  SOME NATIONAL WEATHER *****

CITY           SKY/WX    TMP DP  RH WIND       PRES   REMARKS
LA GUARDIA NY  PTSUNNY   73  55  53 S12       30.14F
RALEIGH NC     FAIR      86  66  51 CALM      30.09S
ATLANTA GA     FAIR      90  68  48 E12       30.08R HX  94
NEW ORLEANS LA PTSUNNY   88  74  63 NE7G17    30.06S HX  96
OKLAHOMA CITY  PTSUNNY   97  66  36 S18G26    29.94F HX 100
ALBUQUERQUE NM PTSUNNY   95  51  22 VRB3      30.13F HX  92
SALT LAKE CITY FAIR      88  58  36 N8        30.11F
LOS ANGELES CA FAIR      74  64  71 SW16      29.96F
BOISE ID       FAIR      90  49  24 CALM      30.01F
SEATTLE WA     FAIR      81  55  40 VRB7      30.06F
$$

*** WEATHER ACROSS MANITOBA...SASKATCHEWAN AND ONTARIO ***
                ***ONTARIO***

CITY           SKY/WX    TMP DP  RH WIND       PRES   REMARKS
GERALDTON      NOT AVBL
THUNDER BAY    NOT AVBL
SIOUX LOOKOUT  NOT AVBL
TORONTO        NOT AVBL
BIG TROUT LK   NOT AVBL
PICKLE LAKE    NOT AVBL
DRYDEN         NOT AVBL
KENORA         NOT AVBL
$$
                *** MANITOBA***

CITY           SKY/WX    TMP DP  RH WIND       PRES   REMARKS
BRANDON        NOT AVBL
DAUPHIN        NOT AVBL
ISLAND LAKE    NOT AVBL
PILOT MOUND    NOT AVBL
THE PAS        NOT AVBL
THOMPSON       NOT AVBL
WINNIPEG       NOT AVBL
$$
                ***SASKATCHEWAN***

CITY           SKY/WX    TMP DP  RH WIND       PRES   REMARKS
ESTEVAN        NOT AVBL
KINDERSLEY     NOT AVBL
LLOYDMINSTER   NOT AVBL
PRINCE ALBERT  NOT AVBL
REGINA         NOT AVBL
YORKTON        NOT AVBL
N. BATTLEFORD  NOT AVBL
LA RONGE       NOT AVBL
SASKATOON      NOT AVBL
SWIFT CURRENT  NOT AVBL
$$
NOTE: THESE ARE AUTOMATED STATIONS WITH LIMITED QUALITY CONTROL
      "FAIR" INDICATES FEW OR NO CLOUDS BELOW 12,000 FEET WITH NO
      SIGNIFICANT WEATHER AND/OR OBSTRUCTIONS TO VISIBILITY.
      SKY/WX - SKY CONDITION AND SIGNIFICANT WEATHER.
      TMP - AIR TEMPERATURE.    DP   - DEWPOINT TEMPERATURE.
      RH  - RELATIVE HUMIDITY.  PRES - PRESSURE.
      HX  - HEAT INDEX.         WCI  - WIND CHILL INDEX.
$




USA.gov is the U.S. government's official web portal to all federal, state and local government web resources and services.